sat.trackr.live / text

‹ back to catalog

STARLINK-32586

NORAD 61975 · 2024-210S

PAYLOAD ACTIVE UNKNOWN

§ Identity

Operator
Country
US
Launch date
2024-11-14
Launch site
AFETR
Launch vehicle
Mass (kg)
RCS (m²)

Purposes: comms

External: N2YO · Heavens-Above · Gunter

§ Orbital elements

Epoch: 2026-09-21T02:11:34.748160Z

Period
94.27 min
Inclination
43.0056°
Eccentricity
0.0001055
Mean motion
15.27593452 rev/d
Perigee alt
482.3 km
Apogee alt
483.7 km
Semi-major
6,861.1 km
B*
6.1227e-4
RAAN
156.3337°
Arg perigee
357.1702°
Mean anomaly
2.9144°
Rev number
10,476

§ Raw data

STARLINK-325861 61975U 24210S   26264.09137440  .00016631  00000+0  61227-3 0  99922 61975  43.0056 156.3337 0001055 357.1702   2.9144 15.27593452104763

JSON: /api/v1/satellites/61975 · /tle

For live sub-satellite position, see the globe view (requires WebGL).

§ Visibility from observer

Set your observer location to see the next 7 days of passes ≥ 10°. The values pass through the URL so the page stays shareable.

No JS? Fill the form by hand. The geolocation button needs JavaScript.